This demonstration page uses our WeatherBlox Daily Observations layout. Learn more.

Left ArrowRight Arrow

39.29038, -76.61219

Hourly Observations for November 15, 2016

Temp ( °F °C ) Dew Point ( °F °C ) Humidity (%) Winds ( mph kmh ) Pressure ( in mb ) Visibility ( mi km ) Precip ( " mm )
12:54 am 00:54 undefined 51 10.6 40 4.4 66 66 undefined N/A 29.95 1014 N/A 0.00 0.00
1:54 am 01:54 undefined 50 10 41 5 71 71 undefined N/A 29.95 1014 N/A 0.00 0.00
2:54 am 02:54 undefined 50 10 40 4.4 68 68 undefined N/A 29.94 1014 N/A 0.00 0.00
3:54 am 03:54 undefined 51 10.6 36 2.2 56 56 undefined N/A 29.93 1014 N/A 0.00 0.00
4:54 am 04:54 undefined 50 10 35 1.7 57 57 undefined N/A 29.93 1014 N/A 0.00 0.00
5:54 am 05:54 undefined 51 10.6 31 -0.6 46 46 undefined N/A 29.92 1013 N/A 0.00 0.00
6:54 am 06:54 undefined 51 10.6 30 -1.1 44 44 undefined N/A 29.92 1013 N/A 0.00 0.00
7:54 am 07:54 undefined 52 11.1 30 -1.1 43 43 undefined N/A 29.92 1013 N/A 0.00 0.00
8:54 am 08:54 undefined 54 12.2 31 -0.6 42 42 undefined N/A 29.91 1013 N/A 0.00 0.00
9:54 am 09:54 undefined 55 12.8 30 -1.1 38 38 undefined N/A 29.90 1012 N/A 0.00 0.00
10:54 am 10:54 undefined 59 15 30 -1.1 33 33 undefined N/A 29.88 1012 N/A 0.00 0.00
11:54 am 11:54 undefined 60 15.6 29 -1.7 31 31 undefined N/A 29.85 1011 N/A 0.00 0.00
12:54 pm 12:54 undefined 62 16.7 27 -2.8 26 26 undefined N/A 29.83 1010 N/A 0.00 0.00
1:54 pm 13:54 undefined 63 17.2 21 -6.1 20 20 undefined N/A 29.83 1010 N/A 0.00 0.00
2:54 pm 14:54 undefined 63 17.2 20 -6.7 19 19 undefined N/A 29.82 1010 N/A 0.00 0.00
3:54 pm 15:54 undefined 63 17.2 22 -5.6 21 21 undefined N/A 29.82 1010 N/A 0.00 0.00
4:54 pm 16:54 undefined 62 16.7 27 -2.8 26 26 undefined N/A 29.82 1010 N/A 0.00 0.00
5:54 pm 17:54 undefined 58 14.4 30 -1.1 35 35 undefined N/A 29.83 1010 N/A 0.00 0.00
6:54 pm 18:54 undefined 57 13.9 30 -1.1 36 36 undefined N/A 29.84 1010 N/A 0.00 0.00
7:54 pm 19:54 undefined 55 12.8 31 -0.6 40 40 undefined N/A 29.83 1010 N/A 0.00 0.00
8:54 pm 20:54 undefined 54 12.2 32 0 43 43 undefined N/A 29.83 1010 N/A 0.00 0.00
9:54 pm 21:54 undefined 52 11.1 32 0 47 47 undefined N/A 29.84 1010 N/A 0.00 0.00
10:54 pm 22:54 undefined 51 10.6 33 0.6 50 50 undefined N/A 29.84 1011 N/A 0.00 0.00
11:54 pm 23:54 undefined 50 10 32 0 50 50 undefined N/A 29.85 1011 N/A 0.00 0.00

Powered by AerisWeather